This is the latest recevied weather packets stored in our database for station/object WX5KDM. If no packets are shown the sender has not sent any weather packets the latest 10 day(s).
| Time | Temp. | Humidity | Pressure | Rain* | Wind** | Luminosity | Snow |
|---|---|---|---|---|---|---|---|
| 1787920681 | 22.22° C | 99% | 1018.8 hPa | 0 mm | - | - | - |
| 1787920380 | 21.67° C | 99% | 1018.7 hPa | 0 mm | - | - | - |
| 1787920073 | 21.67° C | 99% | 1018.7 hPa | 0 mm | - | - | - |
| 1787919768 | 21.67° C | 99% | 1018.7 hPa | 0 mm | - | - | - |
| 1787919466 | 21.67° C | 99% | 1018.6 hPa | 0 mm | - | - | - |
| 1787919162 | 21.67° C | 99% | 1018.4 hPa | 0 mm | - | - | - |
| 1787918862 | 21.11° C | 99% | 1018.4 hPa | 0 mm | - | - | - |
| 1787918557 | 20.56° C | 99% | 1018.2 hPa | 0 mm | - | - | - |
| 1787918250 | 20.56° C | 99% | 1018.3 hPa | 0 mm | - | - | - |
| 1787917959 | 20.56° C | 99% | 1018.2 hPa | 0 mm | - | - | - |
| 1787917645 | 20.56° C | 99% | 1017.9 hPa | 0 mm | - | - | - |
| 1787917342 | 20° C | 99% | 1017.9 hPa | 0 mm | - | - | - |
| 1787917041 | 20° C | 99% | 1017.9 hPa | 0 mm | - | - | - |
| 1787916736 | 20° C | 99% | 1017.9 hPa | 0 mm | - | - | - |
| 1787916431 | 20° C | 99% | 1017.7 hPa | 0 mm | - | - | - |
| 1787916127 | 20° C | 99% | 1018 hPa | 0 mm | - | - | - |
| 1787915835 | 20° C | 99% | 1017.8 hPa | 0 mm | - | - | - |
| 1787915522 | 20° C | 99% | 1017.6 hPa | 0 mm | - | - | - |
| 1787915216 | 20.56° C | 99% | 1017.5 hPa | 0 mm | - | - | - |
| 1787914915 | 20.56° C | 99% | 1017.7 hPa | 0 mm | - | - | - |
| 1787914614 | 20.56° C | 99% | 1017.4 hPa | 0 mm | - | - | - |
| 1787914310 | 20.56° C | 99% | 1017.5 hPa | 0 mm | - | - | - |
| 1787914009 | 20.56° C | 99% | 1017.5 hPa | 0 mm | - | - | - |
| 1787913709 | 20.56° C | 99% | 1017.3 hPa | 0 mm | - | - | - |
| 1787913404 | 20.56° C | 99% | 1017.1 hPa | 0 mm | - | - | - |
* Rain latest hour (hover to see other rain measurements)
** Current wind speed in m/s (hover to see current wind gust speed)